AQI (45)

Current Conditions for Foresthill, CA. Clear skies, Dry   
Visibility: 10 miles
Foresthill Advisory text: No Warning

  Summary / Temperature 

Current Temperature
66.4°F
19.1°C
(24/hr Ago)
65.5°F
(Apparent temp)
63.5°F
Comfortable
Wind Chill Graphs
66.4°F 

66.6°F/ 19.2°C
 --- Virtual Temp: 68.6°F ---

 Temp Rate:

 24/hr Difference:

 Avg Running Temp:

 Todays High:

 Todays Low:

 Y-days High:

 Y-days Low:

 Todays WChill:

 Y-days WChill:

 Evapotranspiration:

+0.6°F/hr 

+0.9°F

66.3°F

66.6°F 2:18am

64.6°F 12:29am

81.6°F 3:01pm

64.0°F 1:41am

63.3°F 12:36am

63.2°F 1:48am

0.005 in

115' Above Ground

 Temperature:

 6'AGL VRS 115'AGL:

 Avg Running Temp:

 Humidity:

 Todays High:

 Todays Low:

 Y-days High:

 Y-days Low:

68.0°F 

+1.6°F

68.1°F

40% 

69.0°F 12:58am

66.0°F 12:13am

82.0°F 3:47pm

67.0°F 4:06am

Temp & Humidity Graphs

  Wind 

Wind Speed

 7.0 mph

Gusting to

 13.0 mph

Wind from E

96°  E

Light breeze

 Avg speed:

 Wind Run:

 Peak Gust:

  3.0 mph 

11.0 miles

  20.0 mph 2:28am

  Almanac  

Moon age: 25 days,11 hours,15 minutes,18%

Waning Crescent
16%
Illuminated
25 days in cycle

 Moonrise:

 Moonset:

 Sunrise:

 Sunset:

 Solar Noon:

2:47am

5:16pm

6:30am

7:40pm

1:04pm

2min 23s less daylight tomorrow 

  Solar Radiation 

(Current Solar)
  No Sun Light
(Todays High)
 None@12:00am

Rain

 Rain Today:

 Rain Rate (/hr):

 Rain last hour:

 Rain Yesterday:

 This Month:

 Season Total:

93 Days Since Last Rain Day

0.00 in

0.000 in

0.00 in

0.00 in

0.00 in

0.00 in

Updated Time

Updated: 8/28/16  3:20am

(Updated  sec ago)

Humidity & Barometer

 Humidity:

 Wetbulb:

 Dew Point:

 Barometer:

46% 

55.5°F 

45.0°F 

29.991 inHg 

 Baro Trend:  Steady 
Northern Calif
Preparedness
Fire 
Level 

    UV Index  

(Current UV)
0.0  None
(Todays High) @ 12:00am
0.0   None

Weather Underground 5 day Forecast

Sun Mon Tue Wed Thu
Clear Partly Cloudy T-storms Clear Clear
Clear Partly Cloudy T-storms Clear Clear
90° 92° 84° 84° 81°
61° 59° 57° 55° 55°

Foresthill Probe 2 Stats  
Foresthill Probe 2: is located on Thomas Street
at 3000 feet. The main Foresthill Weather site
is located on Melody ln at the 2860 foot elevation

Calm
64.5°F
18.1°C
Temp Rate:
+0.4°F
Calm
Gusting to
2.0 mph
(Humidity)
48%
Wind from ESE
122°  ESE
Updated: 28/08/16 - 03:17:36
 Todays High: 65.8°F 02:46
 Todays Low: 63.2°F 00:07
 Rain Today: 0.00 in
 Season Total: 0.00 in

Foresthill Wx: Monthly,Yearly, Highs and Lows 

Foresthill  
This Weather Data is coming from the main Foresthill
Weather site located on Melody ln at the 2860 foot
elevation
Not Foresthill Probe 2
Weather Data
Month
  High
Month
  Low
Year
High
Year
Low
Temp 93.1°F
8/14/16
62.9°F
8/7/16
96.7°F
7/27/16
28.4°F
2/1/16
Humidity 62%
8/11/16
12%
8/4/16
100%
1/6/16
12%
8/4/16
Heat Index 90.0°F
8/13/16
63.1°F
8/6/16
93.3°F
7/27/16
33.3°F
2/1/16
Wind Chill 93.1°F
8/14/16
61.2°F
8/7/16
96.7°F
7/27/16
15.8°F
2/1/16
Wind Gust 21 mph
8/2/16
0 mph
8/1/16
48 mph
2/17/16
0 mph
1/1/16
Barometer 30.04 in
8/24/16
29.76 in
8/9/16
30.56 in
2/3/16
29.44 in
2/17/16
ET 0.24 in
8/3/16
0.00 in
8/1/16
0.27 in
6/22/16
0.00 in
1/1/16
Dew Point 58.2°F
8/19/16
26.9°F
8/6/16
64.3°F
6/4/16
19.9°F
1/1/16
Infrared Satellite Regional Radar Satellite Imagery Sacramento,CA.  (click to enlarge)
NWS Weather Forecast - Outlook: Overnight and Sunday
Overnight

Overnight: Clear, with a low around 62. East wind around 7 mph.
Clear

Lo 62 °F
NWS forecast: Clear, with a low around 62. East wind around 7 mph.
Sunday

Sunday: Sunny, with a high near 86. East northeast wind 5 to 7 mph becoming southwest in the afternoon.
Sunny

Hi 86 °F
NWS forecast: Sunny, with a high near 86. East northeast wind 5 to 7 mph becoming southwest in the afternoon.
NWS Weather Forecast - Summary
Updated: Saturday, August 27, 2016 - 2:32pm (PDT)
YR.NO 10 Day Weather forecast
Last update: 08/27/2016 @ 12:30
Next update: 08/28/2016 @ 01:00
Provided by: 22
      Temperature Precipitation Pressure Wind  
Today
08/28/2016
02:00 05:00 57°F   30.01 inHg Light air from east 1 mph
  05:00 11:00 55°F   30.02 inHg Light air from east-northeast 2 mph
  11:00 17:00 81°F   30.04 inHg Light breeze from southwest 4 mph
  17:00 23:00 81°F   30.00 inHg Light breeze from southwest 5 mph
  23:00 05:00 63°F   30.03 inHg Light air from east 2 mph
      Temperature Precip Pressure Wind  
Monday
08/29/2016
05:00 11:00 55°F   30.01 inHg Light breeze from east-northeast 5 mph
  11:00 17:00 81°F   30.04 inHg Light breeze from southwest 5 mph
  17:00 23:00 82°F   29.97 inHg Light breeze from southwest 5 mph
  23:00 05:00 64°F   29.98 inHg Light air from south-southeast 2 mph
      Temperature Precip Pressure Wind  
Tuesday
08/30/2016
05:00 11:00 57°F   29.99 inHg Light air from south 3 mph
  11:00 17:00 75°F   29.98 inHg Light breeze from south-southwest 6 mph
  17:00 23:00 77°F   29.89 inHg Light breeze from southwest 5 mph
  23:00 05:00 61°F   29.92 inHg Light air from south-southeast 2 mph
      Temperature Precip Pressure Wind  
Wednesday
08/31/2016
05:00 11:00 52°F   29.88 inHg Light air from east-northeast 2 mph
  11:00 17:00 75°F   29.89 inHg Light breeze from west-southwest 5 mph
  17:00 23:00 77°F   29.84 inHg Light breeze from southwest 6 mph
  23:00 05:00 61°F   29.88 inHg Light breeze from southeast 4 mph
      Temperature Precip Pressure Wind  
Thursday
09/01/2016
05:00 11:00 54°F   29.86 inHg Light breeze from east 5 mph
  11:00 17:00 73°F   29.91 inHg Light breeze from southwest 5 mph
  17:00 23:00 77°F   29.87 inHg Light breeze from west-southwest 5 mph
  23:00 05:00 61°F   29.90 inHg Light air from east-northeast 2 mph
      Temperature Precip Pressure Wind  
Friday
09/02/2016
05:00 11:00 54°F   29.90 inHg Light breeze from east-northeast 4 mph
  11:00 17:00 81°F   29.93 inHg Light breeze from south 6 mph
  17:00 23:00 79°F   29.88 inHg Light breeze from southwest 6 mph
  23:00 05:00 63°F   29.89 inHg Light breeze from east 4 mph
      Temperature Precip Pressure Wind  
Saturday
09/03/2016
05:00 11:00 55°F   29.85 inHg Light breeze from east-northeast 5 mph
  11:00 17:00 79°F   29.88 inHg Light breeze from southwest 6 mph
  17:00 23:00 79°F   29.83 inHg Light breeze from southwest 5 mph
  23:00 05:00 66°F   29.87 inHg Light air from south 1 mph
      Temperature Precip Pressure Wind  
Sunday
09/04/2016
05:00 11:00 57°F   29.84 inHg Light breeze from east-northeast 4 mph
  11:00 17:00 81°F   29.88 inHg Light breeze from west-southwest 6 mph
  17:00 23:00 81°F   29.81 inHg Light breeze from west-southwest 5 mph
  23:00 05:00 66°F   29.88 inHg Light air from southeast 1 mph
      Temperature Precip Pressure Wind  
Monday
09/05/2016
05:00 11:00 55°F   29.85 inHg Light air from east-northeast 3 mph
  11:00 17:00 79°F   29.88 inHg Light breeze from west-southwest 5 mph
  17:00 23:00 79°F   29.83 inHg Light breeze from west-southwest 7 mph
  23:00 05:00 63°F   29.87 inHg Light air from east 2 mph
How Close Are We To this Month's Temperature Record ?
Updated Sunday, Aug 28, 2016- 3:15:00 AM

Current Temperature: 66.4°F

August's High: Temperature Record 97.8°F - Set on Sat, Aug 11, 2012 - 2:34:00 PM
We are currently 31.4°F Less than this Month's record High

August's Low: Temperature Record 57.5°F - Set on Sun, Aug 30, 2015 - 7:31:00 AM
We are currently 8.9°F More than this Month's record Low

        Records began on 03 November 2011.

Weather History For Sunday, August 28, 2016


On this Day - In Weather History ...
Data courtesy of weatherforyou.com
powered by Cumulus v1.9.3 (1059)
Ambient Weather VWS v14.00
Top Contact Website Map Copyright © 2007 - 2016 Foresthillweather.com Never base important decisions on this or any weather information obtained from the Internet